Villa Grove, CO

7:29 PM MST on February 10, 2016 (GMT -0700)
Monarch Pass

Weather History for KMYP - May, 2013

Change the Weather History Date:

Sunday, May 12, 2013

  Actual Average (KGUC) Record (KGUC)
Temperature  
Mean Temperature 38 °F -  
Max Temperature 46 °F 61 °F 71 °F (2001)
Min Temperature 30 °F 29 °F 19 °F (1999)
Degree Days  
Heating Degree Days 27    
Moisture  
Dew Point 24 °F    
Average Humidity 60    
Maximum Humidity 93    
Minimum Humidity 34    
Precipitation  
Precipitation 0.00 in - - ()
Sea Level Pressure  
Sea Level Pressure 30.69 in    
Wind  
Wind Speed 11 mph (NW)    
Max Wind Speed 20 mph    
Max Gust Speed 32 mph    
Averages and records for this station are not official NWS values.
T = Trace of Precipitation, MM = Missing Value Source: NWS Daily Summary

Daily Weather History Graph

Daily Weather History Graph

Search for Another Location

Airport or City:

Trip Planner

Search our weather history database for the weather conditions in past years. The results will help you decide how hot, cold, wet, or windy it might be!

Date:

Astronomy

May. 12, 2013 Rise Set
Actual Time 5:56 AM MDT 8:06 PM MDT
Civil Twilight 5:26 AM MDT 8:36 PM MDT
Nautical Twilight 4:50 AM MDT 9:12 PM MDT
Astronomical Twilight 4:11 AM MDT 9:51 PM MDT
Moon 7:54 AM MDT (5/12) 10:35 PM MDT (5/12)
Length of Visible Light 15h 09m
Length of Day
14h 10m
Waxing Crescent, 7% of the Moon is Illuminated
May 12
Waxing Crescent
May 17
First Quarter
May 24
Full
May 31
Last Quarter
Jun 8
New

Hourly Weather History & Observations

Time (MDT) Temp. Windchill Dew Point Humidity Pressure Visibility Wind Dir Wind Speed Gust Speed Precip Events Conditions
12:12 AM 32.0 °F 23.0 °F 23.0 °F 69% 30.69 in - WSW 11.5 mph - N/A   Clear
12:32 AM 32.0 °F 23.0 °F 23.0 °F 69% 30.69 in - WSW 11.5 mph - N/A   Clear
12:52 AM 32.0 °F 24.2 °F 23.0 °F 69% 30.70 in - West 9.2 mph - N/A   Clear
1:12 AM 32.0 °F 25.6 °F 23.0 °F 69% 30.69 in - WNW 6.9 mph - N/A   Clear
1:32 AM 32.0 °F 23.6 °F 23.0 °F 69% 30.69 in - WNW 10.4 mph - N/A   Clear
1:52 AM 32.0 °F 22.1 °F 23.0 °F 69% 30.69 in - West 13.8 mph - N/A   Clear
2:12 AM 32.0 °F 23.0 °F 23.0 °F 69% 30.68 in - West 11.5 mph - N/A   Clear
2:32 AM 32.0 °F 22.1 °F 23.0 °F 69% 30.68 in - West 13.8 mph - N/A   Clear
2:52 AM 32.0 °F 22.1 °F 23.0 °F 69% 30.68 in - WNW 13.8 mph 23.0 mph N/A   Clear
3:32 AM 32.0 °F 20.5 °F 24.8 °F 75% 30.68 in - NW 18.4 mph 23.0 mph N/A   Scattered Clouds
3:52 AM 32.0 °F 21.6 °F 24.8 °F 75% 30.68 in - NW 15.0 mph 28.8 mph N/A   Scattered Clouds
4:12 AM 32.0 °F 21.2 °F 24.8 °F 75% 30.68 in - WNW 16.1 mph 28.8 mph N/A   Clear
4:32 AM 32.0 °F 23.6 °F 26.6 °F 80% 30.68 in - WNW 10.4 mph - N/A   Mostly Cloudy
4:52 AM 32.0 °F 21.2 °F 26.6 °F 80% 30.67 in - NW 16.1 mph - N/A   Scattered Clouds
5:12 AM 32.0 °F 20.1 °F 28.4 °F 87% 30.68 in - NW 19.6 mph 32.2 mph N/A   Unknown
5:32 AM 30.2 °F 17.8 °F 28.4 °F 93% 30.68 in - NNW 19.6 mph 27.6 mph N/A   Overcast
5:52 AM 30.2 °F 18.5 °F 28.4 °F 93% 30.67 in - WNW 17.3 mph 21.9 mph N/A   Unknown
6:12 AM 30.2 °F 20.2 °F 26.6 °F 86% 30.67 in - NW 12.7 mph - N/A   Mostly Cloudy
6:32 AM 32.0 °F 22.1 °F 26.6 °F 80% 30.68 in - NW 13.8 mph 19.6 mph N/A   Mostly Cloudy
6:52 AM 32.0 °F 22.1 °F 26.6 °F 80% 30.68 in - WNW 13.8 mph - N/A   Scattered Clouds
7:12 AM 32.0 °F 20.8 °F 26.6 °F 80% 30.69 in - West 17.3 mph - N/A   Scattered Clouds
7:32 AM 32.0 °F 22.1 °F 26.6 °F 80% 30.69 in - West 13.8 mph - N/A   Scattered Clouds
7:52 AM 32.0 °F 22.5 °F 26.6 °F 80% 30.70 in - West 12.7 mph 19.6 mph N/A   Scattered Clouds
8:12 AM 32.0 °F 22.1 °F 26.6 °F 80% 30.70 in - West 13.8 mph 18.4 mph N/A   Clear
8:32 AM 33.8 °F 28.6 °F 26.6 °F 75% 30.70 in - WSW 5.8 mph 20.7 mph N/A   Clear
8:52 AM 33.8 °F 28.6 °F 26.6 °F 75% 30.70 in - West 5.8 mph 17.3 mph N/A   Clear
9:12 AM 35.6 °F 25.2 °F 26.6 °F 70% 30.71 in - WNW 18.4 mph - N/A   Clear
9:32 AM 35.6 °F 29.9 °F 28.4 °F 75% 30.70 in - West 6.9 mph - N/A   Scattered Clouds
9:52 AM 35.6 °F 30.7 °F 28.4 °F 75% 30.71 in - WSW 5.8 mph - N/A   Scattered Clouds
10:12 AM 35.6 °F 29.9 °F 28.4 °F 75% 30.70 in - West 6.9 mph - N/A   Scattered Clouds
10:32 AM 37.4 °F 33.8 °F 26.6 °F 65% 30.70 in - NNW 4.6 mph - N/A   Scattered Clouds
10:52 AM 39.2 °F 37.0 °F 26.6 °F 61% 30.71 in - North 3.5 mph 23.0 mph N/A   Scattered Clouds
11:12 AM 41.0 °F 35.2 °F 26.6 °F 57% 30.71 in - WNW 9.2 mph - N/A   Mostly Cloudy
11:32 AM 39.2 °F 32.0 °F 24.8 °F 56% 30.71 in - North 11.5 mph 20.7 mph N/A   Mostly Cloudy
11:52 AM 41.0 °F 37.1 °F 24.8 °F 53% 30.70 in - North 5.8 mph 24.2 mph N/A   Overcast
12:12 PM 39.2 °F 30.8 °F 28.4 °F 65% 30.69 in - SW 15.0 mph 19.6 mph N/A   Overcast
12:32 PM 41.0 °F 38.0 °F 28.4 °F 61% 30.70 in - North 4.6 mph - N/A   Overcast
12:52 PM 42.8 °F 41.1 °F 26.6 °F 53% 30.70 in - West 3.5 mph - N/A   Mostly Cloudy
1:12 PM 42.8 °F 36.2 °F 23.0 °F 46% 30.70 in - North 12.7 mph 20.7 mph N/A   Mostly Cloudy
1:32 PM 42.8 °F 35.1 °F 26.6 °F 53% 30.69 in - WNW 16.1 mph 20.7 mph N/A   Overcast
1:52 PM 42.8 °F 40.1 °F 24.8 °F 49% 30.69 in - NW 4.6 mph - N/A   Scattered Clouds
2:12 PM 42.8 °F 37.0 °F 26.6 °F 53% 30.70 in - WNW 10.4 mph 23.0 mph N/A   Scattered Clouds
2:32 PM 44.6 °F 38.1 °F 26.6 °F 49% 30.69 in - West 13.8 mph 18.4 mph N/A   Scattered Clouds
2:52 PM 42.8 °F 37.5 °F 23.0 °F 46% 30.69 in - North 9.2 mph - N/A   Mostly Cloudy
3:12 PM 44.6 °F 40.7 °F 23.0 °F 43% 30.69 in - NNE 6.9 mph - N/A   Mostly Cloudy
3:32 PM 44.6 °F 40.2 °F 26.6 °F 49% 30.69 in - West 8.1 mph 18.4 mph N/A   Overcast
3:52 PM 46.4 °F 40.7 °F 23.0 °F 40% 30.69 in - WNW 12.7 mph 17.3 mph N/A   Overcast
4:12 PM 46.4 °F 42.9 °F 21.2 °F 37% 30.69 in - NW 6.9 mph - N/A   Mostly Cloudy
4:32 PM 44.6 °F 39.7 °F 26.6 °F 49% 30.68 in - West 9.2 mph - N/A   Scattered Clouds
4:52 PM 46.4 °F 42.9 °F 21.2 °F 37% 30.68 in - NW 6.9 mph - N/A   Scattered Clouds
5:12 PM 46.4 °F 41.9 °F 19.4 °F 34% 30.68 in - North 9.2 mph 17.3 mph N/A   Clear
5:32 PM 46.4 °F 42.9 °F 19.4 °F 34% 30.68 in - North 6.9 mph 17.3 mph N/A   Clear
5:52 PM 46.4 °F 41.9 °F 19.4 °F 34% 30.68 in - North 9.2 mph - N/A   Clear
6:12 PM 46.4 °F 41.9 °F 21.2 °F 37% 30.68 in - North 9.2 mph - N/A   Clear
6:32 PM 46.4 °F 41.5 °F 21.2 °F 37% 30.68 in - North 10.4 mph 16.1 mph N/A   Clear
6:52 PM 44.6 °F 40.7 °F 21.2 °F 39% 30.68 in - NNE 6.9 mph - N/A   Clear
7:12 PM 42.8 °F 37.5 °F 23.0 °F 46% 30.68 in - North 9.2 mph - N/A   Clear
7:32 PM 42.8 °F 37.0 °F 23.0 °F 46% 30.68 in - North 10.4 mph - N/A   Clear
7:52 PM 42.8 °F 37.5 °F 23.0 °F 46% 30.68 in - North 9.2 mph - N/A   Clear
8:12 PM 41.0 °F 33.9 °F 23.0 °F 49% 30.69 in - North 12.7 mph - N/A   Clear
8:32 PM 41.0 °F 33.5 °F 23.0 °F 49% 30.69 in - North 13.8 mph - N/A   Clear
8:52 PM 41.0 °F 33.9 °F 23.0 °F 49% 30.70 in - NNE 12.7 mph - N/A   Mostly Cloudy
9:12 PM 41.0 °F 33.1 °F 23.0 °F 49% 30.70 in - North 15.0 mph - N/A   Overcast
9:32 PM 41.0 °F 33.9 °F 23.0 °F 49% 30.71 in - North 12.7 mph - N/A   Unknown
9:52 PM 41.0 °F 35.2 °F 23.0 °F 49% 30.72 in - North 9.2 mph - N/A   Clear
10:12 PM 41.0 °F 33.1 °F 23.0 °F 49% 30.72 in - North 15.0 mph 19.6 mph N/A   Clear
10:32 PM 41.0 °F 33.5 °F 23.0 °F 49% 30.72 in - NNE 13.8 mph - N/A   Clear
10:52 PM 41.0 °F 36.4 °F 21.2 °F 45% 30.72 in - NNE 6.9 mph 10.4 mph N/A   Clear
11:12 PM 41.0 °F - 21.2 °F 45% 30.72 in - Calm Calm - N/A   Clear
11:32 PM 41.0 °F - 21.2 °F 45% 30.73 in - Calm Calm - N/A   Clear
11:52 PM 39.2 °F 35.0 °F 23.0 °F 52% 30.73 in - SW 5.8 mph - N/A   Clear